STARLINK-30589, 58103

Orbit data source: Space-Track

STARLINK-30589, 58103 is a payload satellite owned by SpaceX/Seattle (US) in LEO that was launched on Sat, 21 Oct 2023 UTC via an FALCON 9 launch vehicle from the Air Force Western Test Range (AFWTR). Payload-class satellites include a variety of spacecraft equipped with specific instruments for various scientific and technological missions. These include communications satellites like Starlink; space stations such as the ISS; scientific satellites like the Hubble; Earth observation satellites from companies like Planet Labs, Umbra, and HawkEye 360; GPS; miniature CubeSats for education and research; and military/defense satellites.

Loading next visibility...
Identifier
58103, 2023-161G
Orbit
LEO
Country
Flag of USUS
Related business
Manufacturer
SpaceX/Seattle
Mission
Operational Commercial Communications
Bus & Motor
STARLINK V2M, Unknown motor
Mass
730 kg wet, ~700 kg dry
Launch date (UTC)
2023-10-21 (3 years ago)
Launch vehicle
FALCON 9
Launch site
Air Force Western Test Range (AFWTR)
Object type
Payload
Rocket body
Debris
Shape & HBR
Box + 2 Pan, 17.7 m
Radar Cross Section
33.884 m², Large (>1 m²)

Expand to show TLE details & history
Last TLE update: 2 days ago

TLE from 2 days ago
0 STARLINK-30589
1 58103U 23161G   26170.94705398  .00001037  00000-0  47102-4 0  9990
2 58103  53.1609  50.6473 0001247  91.1613 268.9531 15.30211258150078
Epoch: 2026-06-19T22:43Z
TLE epoch observation values (Epoch: 2026-06-19T22:43:45.463Z)
Latitude
-0.00001°
Longitude
161.53913°
Altitude
476.097 km
Speed
7.629 km/s
True Right ascension
03h 22m 35s
True Declination
0° 00' 00"
Sunlit
Object was in daylight at epoch
Visualization orbit readout
Latitude
Unknown
Longitude
Unknown
Altitude
Unknown
Speed
Unknown
Apparent Right ascension
Unknown
Apparent Declination
Unknown
Sunlit
N/A
Visualization observer readout
Local Sidereal Time
21:27:16
Azimuth
Unknown
Elevation
Unknown
Doppler factor
Unknown
Orbital elements
Apogee altitude
476.292 km
Perigee altitude
474.583 km
Semi-major axis
6,853.575 km
Eccentricity
0.00012
Inclination
53.1609°
RAAN
50.6473°
Arg. of periapsis
91.1613°
True anomaly
268.93881°
Mean anomaly
268.9531°
Eccentric anomaly
268.94596°
Mean motion
3.82532 °/min
Orbital period
94.11 mins
BSTAR
0.000047102
Loading maneuver chart data...
Computing Atmospheric mass density...
Loading historical data...
Loading historical data...
Loading historical data...
Loading historical data...
Loading historical data...
Loading historical data...
Loading historical data...

Documentation

Showing up to 5 results
|